Location: Geseke
(51.6397°N, 8.5105°E)
Time: 15:27:58
(UTC+02:00)

ISS - Pass Details

Date: 01 July 2021
Orbit: 419 x 421 km, 51.6° (Epoch: 31 July)

Event Time Altitude Azimuth Distance (km) Brightness Sun altitude
Exits shadow 04:15:00 - 206° (SSW) 1,583 -1.5 -7.0°
Reaches altitude 10° 04:15:15 10° 204° (SSW) 1,498 -1.6 -6.9°
Maximum altitude 04:18:03 25° 147° (SSE) 899 -2.2 -6.7°
Drops below altitude 10° 04:20:52 10° 91° (E) 1,503 -0.4 -6.4°
Sets 04:23:12 0° 77° (ENE) 2,370 1.0 -6.2°
